Weather History for Umea, Sweden

Change the Weather History Date:

Monday, March 4, 2013

  Actual Average Record
Temperature  
Mean Temperature 6 °F -  
Max Temperature 24 °F - - ()
Min Temperature -11 °F - - ()
Degree Days  
Heating Degree Days 58    
Moisture  
Dew Point 11 °F    
Average Humidity 87    
Maximum Humidity 93    
Minimum Humidity 77    
Precipitation  
Precipitation 0.00 in - - ()
Sea Level Pressure  
Sea Level Pressure 29.90 in    
Wind  
Wind Speed 2 mph ()    
Max Wind Speed 9 mph    
Max Gust Speed -    
Visibility 5.3 miles    
Events Snow    
T = Trace of Precipitation, MM = Missing Value Source: Averaged Metar Reports

Daily Weather History Graph

Daily Weather History Graph

Search for Another Location

Airport:

Trip Planner

Search our weather history database for the weather conditions in past years. The results will help you decide how hot, cold, wet, or windy it might be!

Date:

Astronomy

Mar. 04, 2013 Rise Set
Actual Time 6:35 AM CET 5:07 PM CET
Civil Twilight 5:48 AM CET 5:54 PM CET
Nautical Twilight 4:53 AM CET 6:49 PM CET
Astronomical Twilight 3:56 AM CET 7:46 PM CET
Moon 1:58 AM CET (3/4) 7:56 AM CET (3/4)
Length of Visible Light 12h 06m
Length of Day
10h 32m
Waning Gibbous, 55% of the Moon is Illuminated
Mar 4
Waning Gibbous
Mar 4
Last Quarter
Mar 11
New
Mar 19
First Quarter
Mar 27
Full

Hourly Weather History & Observations

Time (CET) Temp. Windchill Dew Point Humidity Pressure Visibility Wind Dir Wind Speed Gust Speed Precip Events Conditions
12:20 AM -9.4 °F - -14.8 °F 77% 29.95 in 6.2 mi Calm Calm - N/A   Partly Cloudy
12:50 AM -7.6 °F - -13.0 °F 77% 29.95 in 6.2 mi NW 1.2 mph - N/A   Scattered Clouds
1:20 AM -11.2 °F - -16.6 °F 77% 29.95 in - WNW 1.2 mph - N/A   Clear
1:50 AM -9.4 °F - -14.8 °F 77% 29.95 in 6.2 mi NW 2.3 mph - N/A   Unknown
2:20 AM -9.4 °F - -14.8 °F 77% 29.92 in 6.2 mi NW 1.2 mph - N/A   Unknown
2:50 AM -9.4 °F - -13.0 °F 84% 29.92 in - NW 2.3 mph - N/A   Clear
3:20 AM -4.0 °F - -7.6 °F 85% 29.92 in 6.2 mi Calm Calm - N/A   Mostly Cloudy
3:50 AM -0.4 °F - -4.0 °F 85% 29.92 in 6.2 mi Variable 1.2 mph - N/A   Ice Crystals
4:20 AM 3.2 °F - -2.2 °F 78% 29.89 in 6.2 mi Calm Calm - N/A   Overcast
4:50 AM 3.2 °F - -0.4 °F 85% 29.89 in 6.2 mi Calm Calm - N/A   Overcast
5:20 AM 5.0 °F - 1.4 °F 85% 29.89 in 6.2 mi Variable 1.2 mph - N/A Snow Light Snow
6:20 AM 6.8 °F - 3.2 °F 85% 29.86 in 2.2 mi Variable 1.2 mph - N/A Snow Light Snow
6:50 AM 6.8 °F - 3.2 °F 85% 29.86 in - Calm Calm - N/A Snow Light Snow
7:20 AM 8.6 °F - 6.8 °F 92% 29.86 in 1.6 mi NNW 2.3 mph - N/A Snow Light Snow
7:50 AM 10.4 °F 4.0 °F 8.6 °F 92% 29.86 in 1.1 mi NNW 3.5 mph - N/A Snow Light Snow
8:20 AM 12.2 °F 6.1 °F 8.6 °F 85% 29.86 in 1.6 mi NW 3.5 mph - N/A Snow Light Snow
8:50 AM 14.0 °F 8.2 °F 10.4 °F 86% 29.86 in 1.6 mi NW 3.5 mph - N/A Snow Light Snow
9:20 AM 14.0 °F 8.2 °F 12.2 °F 93% 29.86 in 1.9 mi NW 3.5 mph - N/A Snow Light Snow
9:50 AM 17.6 °F 12.3 °F 15.8 °F 93% 29.86 in - NW 3.5 mph - N/A Snow Light Snow
10:20 AM 21.2 °F - 19.4 °F 93% 29.89 in 2.5 mi Variable 1.2 mph - N/A Snow Snow Grains
10:50 AM 23.0 °F - 19.4 °F 86% 29.89 in 4.3 mi Variable 2.3 mph - N/A Snow Light Snow
11:20 AM 23.0 °F 14.7 °F 19.4 °F 86% 29.89 in 6.2 mi ESE 6.9 mph - N/A Snow Light Snow
11:50 AM 23.0 °F 15.8 °F 21.2 °F 93% 29.89 in 6.2 mi ESE 5.8 mph - N/A Snow Light Snow
12:20 PM 24.8 °F 15.3 °F 21.2 °F 86% 29.89 in 6.2 mi SE 9.2 mph - N/A Snow Light Snow
12:50 PM 23.0 °F 17.0 °F 21.2 °F 93% 29.89 in 4.3 mi East 4.6 mph - N/A Snow Light Snow
1:20 PM 23.0 °F 17.0 °F 21.2 °F 93% 29.89 in 3.7 mi East 4.6 mph - N/A Snow Light Snow
1:50 PM 24.8 °F 19.1 °F 21.2 °F 86% 29.89 in 4.3 mi ENE 4.6 mph - N/A Snow Light Snow
2:20 PM 23.0 °F 17.0 °F 21.2 °F 93% 29.89 in 6.2 mi ENE 4.6 mph - N/A Snow Snow Grains
2:50 PM 23.0 °F 17.0 °F 21.2 °F 93% 29.89 in 6.2 mi ENE 4.6 mph - N/A Snow Snow Grains
3:20 PM 23.0 °F 15.8 °F 21.2 °F 93% 29.89 in 6.2 mi East 5.8 mph - N/A   Overcast
3:50 PM 23.0 °F 17.0 °F 21.2 °F 93% 29.89 in 6.2 mi ENE 4.6 mph - N/A   Overcast
4:20 PM 23.0 °F 15.8 °F 19.4 °F 86% 29.89 in 6.2 mi ENE 5.8 mph - N/A   Overcast
4:50 PM 23.0 °F 17.0 °F 19.4 °F 86% 29.92 in 6.2 mi ENE 4.6 mph - N/A Snow Snow Grains
5:20 PM 23.0 °F 17.0 °F 19.4 °F 86% 29.92 in 6.2 mi East 4.6 mph - N/A   Overcast
5:50 PM 23.0 °F 18.4 °F 19.4 °F 86% 29.92 in 6.2 mi ENE 3.5 mph - N/A   Overcast
6:20 PM 23.0 °F 18.4 °F 19.4 °F 86% 29.92 in 6.2 mi ENE 3.5 mph - N/A   Overcast
6:50 PM 23.0 °F 18.4 °F 19.4 °F 86% 29.92 in 6.2 mi ENE 3.5 mph - N/A Snow Light Snow
7:20 PM 23.0 °F 18.4 °F 19.4 °F 86% 29.92 in 6.2 mi ENE 3.5 mph - N/A   Overcast
7:50 PM 23.0 °F 18.4 °F 19.4 °F 86% 29.92 in 6.2 mi ENE 3.5 mph - N/A   Overcast
8:50 PM 23.0 °F 18.4 °F 19.4 °F 86% 29.92 in 6.2 mi NE 3.5 mph - N/A   Overcast
9:20 PM 21.2 °F 16.4 °F 19.4 °F 93% 29.92 in 6.2 mi NE 3.5 mph - N/A   Overcast
9:50 PM 23.0 °F 17.0 °F 19.4 °F 86% 29.92 in 6.2 mi ENE 4.6 mph - N/A   Overcast
10:20 PM 23.0 °F 18.4 °F 19.4 °F 86% 29.92 in 6.2 mi East 3.5 mph - N/A   Overcast
10:50 PM 23.0 °F 18.4 °F 19.4 °F 86% 29.92 in 6.2 mi East 3.5 mph - N/A   Overcast
11:20 PM 23.0 °F 18.4 °F 19.4 °F 86% 29.92 in 6.2 mi East 3.5 mph - N/A   Overcast
11:50 PM 23.0 °F 15.8 °F 19.4 °F 86% 29.92 in 6.2 mi East 5.8 mph - N/A   Overcast